• Join FlightAware (Why Join?)
  • Login
  • US Flag 
12:53PM EST


 

Airport Tracker/Info


-or-


 

Live Flight TrackerFlight Track Log ✈ N589H ✈ 02-Jul-2014 ✈ KBCT - KPNE

Flight Track Log - Related Links

Times and Time Zones

All times are in EDT time to prevent confusion due to time zone crossing. See the N589H flight status page for this flight to view local times or setup timezone preferences in your user account.

Time Position Orientation Groundspeed Altitude Reporting Facility
EDT Latitude Longitude Course Direction KTS MPH feet Rate Location/Type
11:06AM 26.3642 -80.1356 334° Northwest 139 160 1,200  Level Miami Center
11:08AM 26.4047 -80.1581 334° Northwest 174 200 2,500 1,800 Climbing Miami Center
11:09AM 26.4636 -80.1619 357° North 193 222 5,000 2,160 Climbing Miami Center
11:10AM 26.5133 -80.1711 351° North 186 214 7,000 1,980 Climbing Miami Center
11:11AM 26.5383 -80.2217 299° West 190 219 9,100 1,980 Climbing Miami Center
11:12AM 26.5481 -80.2792 281° West 190 219 11,100 1,380 Climbing Miami Center
11:13AM 26.5861 -80.3333 308° West 243 280 12,000 960 Climbing Miami Center
11:14AM 26.6606 -80.3553 345° North 276 318 13,200 1,320 Climbing Miami Center
11:15AM 26.7328 -80.3808 342° North 274 315 14,800 1,260 Climbing Miami Center
11:16AM 26.8100 -80.4100 341° North 267 307 15,900 480 Climbing Miami Center
11:17AM 26.8864 -80.4364 343° North 295 339 15,900 240 Level Miami Center
11:18AM 26.9739 -80.4683 342° North 313 360 16,500 780 Climbing Miami Center
11:19AM 27.0575 -80.4994 342° North 308 354 17,600 1,020 Climbing Miami Center
11:20AM 27.1350 -80.5281 342° North 295 339 18,700 960 Climbing Miami Center
11:21AM 27.2111 -80.5561 342° North 288 331 19,700 960 Climbing Miami Center
11:22AM 27.2853 -80.5836 342° North 285 328 20,800 960 Climbing Miami Center
11:23AM 27.3614 -80.6114 342° North 285 328 21,800 960 Climbing Miami Center
11:24AM 27.4383 -80.6400 342° North 286 329 22,800 540 Climbing Miami Center
11:25AM 27.5358 -80.6756 342° North 310 357 23,000 60 Climbing Miami Center
11:26AM 27.6244 -80.7086 342° North 336 387 23,000 180 Level Miami Center
11:27AM 27.7136 -80.7422 342° North 338 389 23,400 420 Climbing Miami Center
11:28AM 27.8019 -80.7756 342° North 337 388 23,900 480 Climbing Miami Center
11:29AM 27.8886 -80.8075 342° North 335 386 24,400 540 Climbing Miami Center
11:30AM 27.9933 -80.8478 341° North 333 383 25,100 540 Climbing Miami Center
11:31AM 28.0800 -80.8800 342° North 331 381 25,600 480 Climbing Miami Center
11:32AM 28.1744 -80.9153 342° North 331 381 26,200 480 Climbing Miami Center
11:33AM 28.2569 -80.9464 342° North 326 375 26,700 480 Climbing Miami Center
11:34AM 28.3450 -80.9800 341° North 321 369 27,300 480 Climbing Miami Center
11:35AM 28.4203 -81.0086 342° North 320 368 27,700 480 Climbing Miami Center
11:36AM 28.5219 -81.0464 342° North 320 368 28,400 540 Climbing Miami Center
11:37AM 28.5647 -81.0656 339° North 320 368 28,600 480 Climbing Jacksonville Center
11:38AM 28.6486 -81.0900 346° North 320 368 29,200 540 Climbing Jacksonville Center
11:39AM 28.7344 -81.1192 343° North 320 368 29,700 480 Climbing Jacksonville Center
11:40AM 28.8225 -81.1414 348° North 320 368 30,200 540 Climbing Jacksonville Center
11:41AM 28.9064 -81.1683 344° North 320 368 30,800 540 Climbing Jacksonville Center
11:42AM 28.9942 -81.1881 349° North 320 368 31,300 540 Climbing Jacksonville Center
11:43AM 29.0800 -81.2081 348° North 315 362 31,900 540 Climbing Jacksonville Center
11:44AM 29.1681 -81.2303 348° North 315 362 32,400 480 Climbing Jacksonville Center
11:45AM 29.2497 -81.2528 346° North 315 362 32,900 240 Climbing Jacksonville Center
11:46AM 29.3375 -81.2681 351° North 315 362 32,900  Level Jacksonville Center
11:47AM 29.4278 -81.2903 348° North 315 362 32,900  Level Jacksonville Center
11:48AM 29.5178 -81.3150 347° North 315 362 32,900  Level Jacksonville Center
11:49AM 29.6097 -81.3350 349° North 320 368 32,900  Level Jacksonville Center
11:50AM 29.7042 -81.3600 347° North 325 374 32,900  Level Jacksonville Center
11:51AM 29.7961 -81.3825 348° North 337 388 32,900  Level Jacksonville Center
11:52AM 29.8925 -81.4047 349° North 342 394 32,900  Level Jacksonville Center
11:53AM 29.9889 -81.4272 349° North 342 394 32,900  Level Jacksonville Center
11:54AM 30.0831 -81.4522 347° North 342 394 32,900  Level Jacksonville Center
11:55AM 30.1814 -81.4725 350° North 347 399 32,900  Level Jacksonville Center
11:56AM 30.2778 -81.4975 347° North 352 405 32,900  Level Jacksonville Center
11:57AM 30.3656 -81.5083 354° North 358 412 32,900  Level Jacksonville Center
11:58AM 30.4636 -81.4997 North 352 405 32,900  Level Jacksonville Center
11:59AM 30.5594 -81.4958 North 347 399 32,900  Level Jacksonville Center
12:00PM 30.6556 -81.4872 North 347 399 32,900  Level Jacksonville Center
12:01PM 30.7536 -81.4808 North 347 399 32,900  Level Jacksonville Center
12:02PM 30.8475 -81.4722 North 347 399 32,900  Level Jacksonville Center
12:03PM 30.9475 -81.4633 North 347 399 32,900  Level Jacksonville Center
12:04PM 31.0411 -81.4403 12° North 347 399 32,900  Level Jacksonville Center
12:05PM 31.1283 -81.3953 24° Northeast 336 387 32,900  Level Jacksonville Center
12:06PM 31.2175 -81.3475 25° Northeast 348 400 32,900  Level Jacksonville Center
12:07PM 31.3069 -81.3022 23° Northeast 348 400 32,900  Level Jacksonville Center
12:08PM 31.3961 -81.2569 23° Northeast 348 400 32,900  Level Jacksonville Center
12:09PM 31.4936 -81.2067 24° Northeast 348 400 32,900  Level Jacksonville Center
12:10PM 31.5722 -81.1636 25° Northeast 354 407 32,900  Level Jacksonville Center
12:11PM 31.6697 -81.1156 23° Northeast 349 402 32,900  Level Jacksonville Center
12:12PM 31.7567 -81.0675 25° Northeast 349 402 32,900  Level Jacksonville Center
12:13PM 31.8375 -81.0242 24° Northeast 349 402 32,900  Level Jacksonville Center
12:14PM 31.9347 -80.9708 25° Northeast 349 402 32,900  Level Jacksonville Center
12:15PM 32.0239 -80.9250 24° Northeast 349 402 32,900  Level Jacksonville Center
12:16PM 32.1150 -80.8789 23° Northeast 349 402 32,900  Level Jacksonville Center
12:17PM 32.2019 -80.8303 25° Northeast 349 402 32,900  Level Jacksonville Center
12:18PM 32.2828 -80.7867 25° Northeast 354 407 32,900  Level Jacksonville Center
12:19PM 32.3819 -80.7375 23° Northeast 354 407 32,900  Level Jacksonville Center
12:20PM 32.4708 -80.6864 26° Northeast 354 407 32,900  Level Jacksonville Center
12:21PM 32.5619 -80.6397 23° Northeast 354 407 32,900  Level Jacksonville Center
12:22PM 32.6464 -80.5808 30° Northeast 354 407 32,900  Level Jacksonville Center
12:23PM 32.7331 -80.5244 29° Northeast 354 407 32,900  Level Jacksonville Center
12:24PM 32.8217 -80.4650 29° Northeast 349 402 32,900  Level Jacksonville Center
12:25PM 32.9083 -80.4083 29° Northeast 349 402 32,900  Level Jacksonville Center
12:26PM 32.9908 -80.3542 29° Northeast 344 396 32,900  Level Jacksonville Center
12:27PM 33.0711 -80.2997 30° Northeast 344 396 32,900  Level Jacksonville Center
12:28PM 33.1594 -80.2400 30° Northeast 349 402 32,900  Level Jacksonville Center
12:29PM 33.2542 -80.1728 31° Northeast 371 427 32,900  Level Jacksonville Center
12:30PM 33.3425 -80.1128 30° Northeast 378 435 32,900  Level Jacksonville Center
12:31PM 33.4308 -80.0528 30° Northeast 373 429 32,900  Level Jacksonville Center
12:32PM 33.5192 -79.9903 31° Northeast 368 423 32,900  Level Jacksonville Center
12:33PM 33.6075 -79.9300 30° Northeast 368 423 32,900  Level Jacksonville Center
12:34PM 33.6978 -79.8669 30° Northeast 368 423 32,900  Level Jacksonville Center
12:35PM 33.7883 -79.8064 29° Northeast 368 423 32,900  Level Jacksonville Center
12:36PM 33.8764 -79.7458 30° Northeast 368 423 32,900  Level Jacksonville Center
12:37PM 33.9644 -79.6800 32° Northeast 368 423 32,900  Level Jacksonville Center
12:38PM 34.0569 -79.6217 28° Northeast 368 423 32,900  Level Jacksonville Center
12:40PM 34.2161 -79.5069 31° Northeast 342 394 32,900  Level Washington Center
12:41PM 34.3083 -79.4361 32° Northeast 358 412 32,900  Level Washington Center
12:42PM 34.3978 -79.3747 30° Northeast 363 418 32,900  Level Washington Center
12:43PM 34.4875 -79.3108 30° Northeast 363 418 32,900  Level Washington Center
12:44PM 34.5792 -79.2469 30° Northeast 363 418 32,900  Level Washington Center
12:45PM 34.6686 -79.1853 30° Northeast 369 425 32,900  Level Washington Center
12:46PM 34.7603 -79.1211 30° Northeast 369 425 32,900  Level Washington Center
12:47PM 34.8497 -79.0567 31° Northeast 369 425 32,900  Level Washington Center
12:48PM 34.9436 -78.9897 30° Northeast 369 425 32,900  Level Washington Center
12:49PM 35.0350 -78.9278 29° Northeast 369 425 32,900  Level Washington Center
12:50PM 35.1264 -78.8628 30° Northeast 369 425 32,900  Level Washington Center
12:51PM 35.2181 -78.8006 29° Northeast 369 425 32,900  Level Washington Center
12:52PM 35.3114 -78.7356 30° Northeast 369 425 32,900  Level Washington Center
12:53PM 35.4136 -78.6631 30° Northeast 379 436 32,900  Level Washington Center
12:54PM 35.4944 -78.6025 31° Northeast 385 443 32,900  Level Washington Center
12:55PM 35.5942 -78.5319 30° Northeast 377 434 32,900  Level Washington Center
12:56PM 35.6939 -78.4642 29° Northeast 385 443 32,900  Level Washington Center
12:57PM 35.7831 -78.4008 30° Northeast 380 437 32,900  Level Washington Center
12:58PM 35.8700 -78.3347 32° Northeast 380 437 32,900  Level Washington Center
12:59PM 35.9633 -78.2711 29° Northeast 380 437 32,900  Level Washington Center
01:00PM 36.0547 -78.2022 31° Northeast 375 432 32,900  Level Washington Center
01:01PM 36.1458 -78.1383 30° Northeast 375 432 32,900  Level Washington Center
01:02PM 36.2347 -78.0717 31° Northeast 375 432 32,900  Level Washington Center
01:03PM 36.3278 -78.0050 30° Northeast 375 432 32,900  Level Washington Center
01:04PM 36.4189 -77.9383 30° Northeast 375 432 32,900  Level Washington Center
01:05PM 36.5081 -77.8661 33° Northeast 380 437 32,900 -60 Level Washington Center
01:06PM 36.5989 -77.8014 30° Northeast 380 437 32,800 -600 Descending Washington Center
01:07PM 36.6919 -77.7314 31° Northeast 380 437 31,800 -1,020 Descending Washington Center
01:08PM 36.7892 -77.6617 30° Northeast 385 443 30,800 -1,020 Descending Washington Center
01:09PM 36.8864 -77.5889 31° Northeast 391 450 29,800 -1,020 Descending Washington Center
01:10PM 36.9814 -77.5186 31° Northeast 396 456 28,800 -1,020 Descending Washington Center
01:11PM 37.0806 -77.4428 31° Northeast 403 464 27,800 -960 Descending Washington Center
01:12PM 37.1756 -77.3722 31° Northeast 403 464 26,900 -420 Descending Washington Center
01:13PM 37.2664 -77.3039 31° Northeast 403 464 27,000 -60 Climbing Washington Center
01:14PM 37.3569 -77.2353 31° Northeast 387 445 26,800 -600 Descending Washington Center
01:15PM 37.4497 -77.1667 30° Northeast 382 440 25,800 -1,020 Descending Washington Center
01:16PM 37.5403 -77.0953 32° Northeast 388 447 24,800 -1,020 Descending Washington Center
01:17PM 37.6308 -77.0261 31° Northeast 383 441 23,800 -780 Descending Washington Center
01:18PM 37.7192 -76.9594 31° Northeast 378 435 23,300 -420 Descending Washington Center
01:19PM 37.8053 -76.8928 31° Northeast 372 428 23,000 -180 Descending Washington Center
01:20PM 37.8917 -76.8258 31° Northeast 366 421 23,000  Level Washington Center
01:21PM 37.9778 -76.7589 31° Northeast 366 421 23,000  Level Washington Center
01:22PM 38.0617 -76.6942 31° Northeast 361 415 23,000 -60 Level Washington Center
01:23PM 38.1356 -76.6133 41° Northeast 356 410 22,900 -840 Descending Washington Center
01:24PM 38.2008 -76.5192 49° Northeast 351 404 21,400 -1,740 Descending Washington Center
01:25PM 38.2661 -76.4275 48° Northeast 346 398 19,400 -1,680 Descending Washington Center
01:26PM 38.3417 -76.3542 37° Northeast 341 392 18,100 -1,260 Descending Washington Center
01:27PM 38.4214 -76.2833 35° Northeast 336 387 17,000 -1,200 Descending Washington Center
01:28PM 38.4989 -76.2072 38° Northeast 341 392 15,800 -1,200 Descending Washington Center
01:29PM 38.5744 -76.1361 36° Northeast 341 392 14,600 -1,320 Descending Washington Center
01:30PM 38.6517 -76.0675 35° Northeast 336 387 13,200 -840 Descending Washington Center
01:31PM 38.7231 -75.9989 37° Northeast 326 375 13,000 -180 Descending Washington Center
01:32PM 38.7961 -75.9325 35° Northeast 326 375 12,900 -300 Descending Washington Center
01:33PM 38.8672 -75.8636 37° Northeast 326 375 12,400 -480 Descending Washington Center
01:34PM 38.9403 -75.7944 36° Northeast 321 369 12,000 -240 Descending Washington Center
01:35PM 39.0111 -75.7253 37° Northeast 321 369 12,000 -180 Level Washington Center
01:36PM 39.0842 -75.6583 35° Northeast 321 369 11,700 -420 Descending Washington Center
01:38PM 39.2167 -75.5333 36° Northeast 306 352 10,900 -300 Descending Philadelphia TRACON
01:39PM 39.3000 -75.5167 North 299 344 10,900  Level Philadelphia TRACON
01:40PM 39.3667 -75.5000 11° North 297 342 10,900  Level Philadelphia TRACON
01:41PM 39.4667 -75.4667 14° North 296 341 10,900  Level Philadelphia TRACON
01:42PM 39.5333 -75.4333 21° North 296 341 10,900 -120 Level Philadelphia TRACON
01:43PM 39.6000 -75.3833 30° Northeast 308 354 10,700 -540 Descending Philadelphia TRACON
01:44PM 39.6667 -75.3000 44° Northeast 316 364 9,900 -780 Descending Philadelphia TRACON
01:45PM 39.7333 -75.2167 44° Northeast 306 352 9,100 -540 Descending Philadelphia TRACON
01:46PM 39.7833 -75.1333 52° Northeast 297 342 8,900 -120 Descending Philadelphia TRACON
01:47PM 39.8167 -75.0500 62° Northeast 314 361 8,900 -300 Level Philadelphia TRACON
01:48PM 39.8667 -74.9500 57° Northeast 304 350 8,400 -1,020 Descending Philadelphia TRACON
01:49PM 39.9167 -74.8667 52° Northeast 294 338 6,900 -1,500 Descending Philadelphia TRACON
01:50PM 39.9833 -74.8167 30° Northeast 296 341 5,400 -1,680 Descending Philadelphia TRACON
01:51PM 40.0667 -74.8167 360° North 296 341 3,600 -1,260 Descending Philadelphia TRACON
01:52PM 40.1333 -74.8667 330° Northwest 244 281 2,900 -720 Descending Philadelphia TRACON
01:53PM 40.1333 -74.9333 270° West 165 190 2,200 -1,020 Descending Philadelphia TRACON
01:54PM 40.1167 -74.9667 237° Southwest 120 138 900 -1,320 Descending Philadelphia TRACON
01:56PM 40.0819 -75.0106 270° West  Level Estimated